Regional Weather Roundup
Issued by NWS

Home | Current Version | Previous Version | Graphics & Text | Print | Product List | Glossary Off
Versions: 1 2 3 4 5 6 7 8 9 10 11 12 13 14 15 16 17 18 19 20 21 22 23 24 25 26 27 28 29 30 31 32 33 34 35 36 37 38 39 40 41 42 43 44 45 46 47 48 49 50

000
ASUS43 KBIS 260731
RWRND
NORTH DAKOTA REGIONAL WEATHER ROUNDUP
NATIONAL WEATHER SERVICE EASTERN NORTH DAKOTA/GRAND FORKS ND
200 AM CDT FRI MAY 26 2017

  NOTE: "FAIR" INDICATES FEW OR NO CLOUDS BELOW 12,000 FEET WITH NO
  SIGNIFICANT WEATHER AND/OR OBSTRUCTIONS TO VISIBILITY.

NDZ001>003-009>011-017-260800-
...NORTHWEST NORTH DAKOTA...

CITY           SKY/WX    TMP DP  RH WIND       PRES   REMARKS
WILLISTON      MOCLDY    50  42  74 W13       29.65R
MINOT          FAIR      54  44  69 SW12      29.57R
MINOT AFB      FAIR      49  43  80 W9        29.55S
$$

NDZ018>021-031>035-040>046-260800-
...SOUTHWEST NORTH DAKOTA...

CITY           SKY/WX    TMP DP  RH WIND       PRES   REMARKS
BISMARCK       FAIR      52  44  74 SW6       29.65R
DICKINSON      CLOUDY    48  38  68 W14       29.69R
GARRISON         N/A     51  44  77 W15       29.60R
HETTINGER      FAIR      46  40  79 W14       29.74R
$$

NDZ004>008-012>016-024-026-027-054-260800-
...NORTHEAST NORTH DAKOTA...

CITY           SKY/WX    TMP DP  RH WIND       PRES   REMARKS
GRAND FORKS    FAIR      53  50  89 SW5       29.56R
GRAND FORKS AF FAIR      52  48  86 W7        29.56R
DEVILS LAKE    FAIR      52  45  77 W8        29.57S
$$

NDZ022-023-025-028>030-036>039-047>053-260800-
...SOUTHEAST NORTH DAKOTA...

CITY           SKY/WX    TMP DP  RH WIND       PRES   REMARKS
JAMESTOWN      FAIR      52  45  77 W7        29.61R
FARGO          FAIR      59  54  83 S12       29.58S
WAHPETON       FAIR      55  50  82 SE7       29.61S
$$




USA.gov is the U.S. government's official web portal to all federal, state and local government web resources and services.